Back to catalog

FREGAT DEB

AliveUNKNOWN
NORAD 46002·DEBRIS·🇷🇺 Russia

Launched Jul 18, 2011 from Baikonur Cosmodrome

Loading…

Next Passes (next 24 hours)

TLE

FreshSource: Space-Track

Epoch: Sep 14, 2026, 13:44 UTC

1 46002U 11037HD  26257.57290270  .00023551  00000-0  49966-1 0  9999
2 46002  51.1351 326.6598 1319978 344.0793  12.2025 11.59034840238636

Track FREGAT DEB in real time with AllMySat

Download on the App Store